Flag for U.S.A. Weather past 2 weeks in Inverness, Florida, U.S.A.

Now
72 °F

Clear.


Feels Like: 67 °F
Forecast: 72 / 94 °F
Wind: No wind

Location: Ocala Municipal

Current Time: Jul 23, 2014 at 8:23:29 AM

Latest Report: Jul 23, 2014 at 6:50 AM


Visibility: 8 mi

Pressure: 30.07 "Hg

Humidity: 94%

Dew point: 70 °F

Location of InvernessLocation

Historic Weather in Inverness — Graph

°F

Inverness temperature yesterday

Maximum temperature yesterday: 88 °F (at 12:50 PM)
Minimum temperature yesterday: 72 °F (at 3:15 AM)
Average temperature yesterday: 76 °F

Past Weeks' High & Low Weather Summary

 TemperatureHumidityPressure
High91 °F (Jul 19, 2:50 PM)100% (Jul 17, 6:50 AM)30.18 "Hg (Jul 17, 6:50 AM)
Low70 °F (Jul 9, 12:55 AM)43% (Jul 18, 1:50 PM)29.90 "Hg (Jul 16, 4:35 AM)
Average76 °F72%30.06 "Hg
* Reported Jul 8 6:15 AM — Jul 23 6:50 AM, Inverness, Weather by CustomWeather, © 2014

Note: Actual official high and low records may vary slightly from our data, if they occured in-between our weather recording intervals... More about our weather records

Advertising

Inverness weather history for previous 24 hours

 ConditionsComfort  
Time TempWeatherWind HumidityBarometerVisibility
6:50 AM
Jul 23
72 °FClear.No wind94%30.07 "Hg8 mi
6:35 AM72 °FClear.No wind73%30.06 "Hg10 mi
5:55 AM72 °FClear.No wind78%30.06 "Hg10 mi
5:15 AM72 °FClear.No wind78%30.05 "Hg10 mi
1:35 AM73 °FClear.No wind78%30.07 "Hg5 mi
12:55 AM75 °FClear.No wind74%30.08 "Hg10 mi
12:35 AM75 °FClear.No wind74%30.09 "Hg10 mi
12:15 AM75 °FClear.No wind74%30.09 "Hg10 mi
11:55 PM
Jul 22
75 °FClear.No wind74%30.09 "Hg10 mi
11:35 PM75 °FClear.No wind74%30.09 "Hg10 mi
11:15 PM75 °FClear.No wind74%30.09 "Hg10 mi
10:55 PM77 °FClear.No wind69%30.09 "Hg10 mi
10:35 PM75 °FClear.No wind74%30.08 "Hg10 mi
10:15 PM75 °FClear.No wind74%30.08 "Hg10 mi
9:55 PM77 °FClear.No wind69%30.07 "Hg10 mi
9:35 PM77 °FClear.No wind69%30.07 "Hg10 mi
9:15 PM77 °FSunny.6 mph69%30.06 "Hg10 mi
8:55 PM79 °FSunny.6 mph65%30.06 "Hg10 mi
8:35 PM79 °FSunny.5 mph65%30.07 "Hg10 mi
7:55 PM81 °FScattered clouds.7 mph62%30.07 "Hg10 mi
12:50 PM88 °FPartly sunny.No wind55%30.08 "Hg10 mi
11:50 AM86 °FPartly sunny.No wind59%30.08 "Hg10 mi
10:50 AM84 °FScattered clouds.No wind62%30.09 "Hg10 mi
9:50 AM81 °FScattered clouds.5 mph70%30.09 "Hg10 mi
8:50 AM79 °FPassing clouds.No wind70%30.09 "Hg10 mi
Weather by CustomWeather, © 2014

See weather overviewHow to use our weather pages